Private Wetterstation Wechselburg
Wetterdaten: Samstag, 02.06.2012
Datum Zeit Temp. +2m Bodentemp. Temp.+5cm Temp. Wind Windchill X Diff Temp. Feuchte +2m Feuchte +5cm Sonnenschein Luftdruck Regen Wind Richtung Richtung Sonnenschein UV Taupunkt Windchill Windben
02.06.2012 00:00 9,9 C 19,7 C 12,0 C 9,7 C 9,3 C 0,0 C 80 % 94 % 0 % 1017,8 hPa 0,0 l/m 4,0 km/h (1 Bft) W-SW 247 0 min 0,0 UV-I 6,6 C 9,3 C 4,5 km/h (1 Bft)
02.06.2012 00:13 9,7 C 19,7 C 12,1 C 9,4 C 8,9 C 0,0 C 80 % 94 % 0 % 1018,2 hPa 0,0 l/m 3,1 km/h (1 Bft) W-SW 247 0 min 0,0 UV-I 6,4 C 8,9 C 7,2 km/h (2 Bft)
02.06.2012 00:14 9,7 C 19,7 C 12,1 C 9,4 C 8,9 C 0,0 C 80 % 94 % 0 % 1018,2 hPa 0,0 l/m 3,1 km/h (1 Bft) W-SW 247 0 min 0,0 UV-I 6,4 C 8,9 C 7,2 km/h (2 Bft)
02.06.2012 00:25 9,5 C 19,7 C 11,9 C 9,2 C 8,6 C 0,0 C 81 % 94 % 0 % 1017,9 hPa 0,0 l/m 3,1 km/h (1 Bft) W-SW 247 0 min 0,0 UV-I 6,4 C 8,6 C 2,9 km/h (1 Bft)
02.06.2012 00:30 9,4 C 19,7 C 11,9 C 9,1 C 8,4 C 0,0 C 81 % 94 % 0 % 1017,9 hPa 0,0 l/m 2,6 km/h (1 Bft) S-SW 202 0 min 0,0 UV-I 6,3 C 8,4 C 3,9 km/h (1 Bft)
02.06.2012 00:35 9,3 C 19,7 C 11,9 C 8,9 C 8,2 C 0,0 C 81 % 94 % 0 % 1017,9 hPa 0,0 l/m 1,8 km/h (1 Bft) SW 225 0 min 0,0 UV-I 6,2 C 8,2 C 2,3 km/h (1 Bft)
02.06.2012 00:40 9,2 C 19,7 C 11,9 C 8,8 C 8,1 C 0,0 C 81 % 94 % 0 % 1017,9 hPa 0,0 l/m 1,6 km/h (1 Bft) SW 225 0 min 0,0 UV-I 6,1 C 8,1 C 0,0 km/h (0 Bft)
02.06.2012 00:45 9,2 C 19,7 C 11,8 C 8,8 C 8,0 C 0,0 C 82 % 94 % 0 % 1018,1 hPa 0,0 l/m 1,9 km/h (1 Bft) S-SW 202 0 min 0,0 UV-I 6,3 C 8,0 C 2,9 km/h (1 Bft)
02.06.2012 00:50 9,1 C 19,7 C 11,8 C 8,7 C 8,0 C 0,0 C 82 % 94 % 0 % 1018,1 hPa 0,0 l/m 1,9 km/h (1 Bft) W 270 0 min 0,0 UV-I 6,2 C 8,0 C 1,9 km/h (1 Bft)
02.06.2012 00:55 9,0 C 19,7 C 11,8 C 8,6 C 7,9 C 0,0 C 82 % 94 % 0 % 1018,1 hPa 0,0 l/m 1,8 km/h (1 Bft) W-SW 247 0 min 0,0 UV-I 6,1 C 7,9 C 2,3 km/h (1 Bft)
02.06.2012 01:00 8,9 C 19,7 C 11,7 C 8,6 C 7,9 C 0,0 C 83 % 94 % 0 % 1018,1 hPa 0,0 l/m 1,0 km/h (0 Bft) W 270 0 min 0,0 UV-I 6,2 C 7,9 C 0,0 km/h (0 Bft)
02.06.2012 01:06 8,7 C 19,7 C 11,6 C 8,4 C 7,8 C 0,0 C 83 % 94 % 0 % 1018,0 hPa 0,0 l/m 1,6 km/h (1 Bft) N 0 0 min 0,0 UV-I 6,0 C 7,8 C 2,4 km/h (1 Bft)
02.06.2012 01:20 8,5 C 19,7 C 11,7 C 8,3 C 7,9 C 0,0 C 84 % 94 % 0 % 1018,0 hPa 0,0 l/m 2,4 km/h (1 Bft) W 270 0 min 0,0 UV-I 6,0 C 7,9 C 2,4 km/h (1 Bft)
02.06.2012 01:25 8,4 C 19,7 C 11,6 C 8,2 C 7,7 C 0,0 C 84 % 94 % 0 % 1018,0 hPa 0,0 l/m 2,1 km/h (1 Bft) W 270 0 min 0,0 UV-I 5,9 C 7,7 C 1,8 km/h (1 Bft)
02.06.2012 01:30 8,4 C 19,7 C 11,6 C 8,1 C 7,6 C 0,0 C 84 % 94 % 0 % 1018,0 hPa 0,0 l/m 1,8 km/h (1 Bft) W-SW 247 0 min 0,0 UV-I 5,9 C 7,6 C 1,8 km/h (1 Bft)
02.06.2012 01:35 8,3 C 19,7 C 11,5 C 8,1 C 7,6 C 0,0 C 84 % 94 % 0 % 1018,0 hPa 0,0 l/m 1,3 km/h (1 Bft) SW 225 0 min 0,0 UV-I 5,8 C 7,6 C 0,0 km/h (0 Bft)
02.06.2012 01:40 8,3 C 19,7 C 11,5 C 8,0 C 7,5 C 0,0 C 84 % 94 % 0 % 1018,0 hPa 0,0 l/m 0,8 km/h (0 Bft) SW 225 0 min 0,0 UV-I 5,8 C 7,5 C 0,0 km/h (0 Bft)
02.06.2012 01:45 8,1 C 19,7 C 11,5 C 7,8 C 7,3 C 0,0 C 85 % 94 % 0 % 1017,9 hPa 0,0 l/m 0,0 km/h (0 Bft) S-SO 157 0 min 0,0 UV-I 5,7 C 7,3 C 0,0 km/h (0 Bft)
02.06.2012 01:50 8,0 C 19,7 C 11,3 C 7,7 C 7,1 C 0,0 C 85 % 94 % 0 % 1017,9 hPa 0,0 l/m 0,0 km/h (0 Bft) S-SO 157 0 min 0,0 UV-I 5,6 C 7,1 C 0,0 km/h (0 Bft)
02.06.2012 01:55 7,9 C 19,7 C 11,3 C 7,6 C 7,0 C 0,0 C 85 % 94 % 0 % 1017,9 hPa 0,0 l/m 0,0 km/h (0 Bft) O-SO 112 0 min 0,0 UV-I 5,5 C 7,0 C 0,0 km/h (0 Bft)
02.06.2012 02:00 7,8 C 19,7 C 11,3 C 7,5 C 6,9 C 0,0 C 85 % 94 % 0 % 1017,9 hPa 0,0 l/m 0,0 km/h (0 Bft) S 180 0 min 0,0 UV-I 5,4 C 6,9 C 0,0 km/h (0 Bft)
02.06.2012 02:11 7,6 C 19,7 C 11,3 C 7,5 C 7,2 C 0,0 C 86 % 95 % 0 % 1017,8 hPa 0,0 l/m 0,3 km/h (0 Bft) N 0 0 min 0,0 UV-I 5,4 C 7,2 C 1,6 km/h (1 Bft)
02.06.2012 02:20 7,6 C 19,7 C 11,5 C 7,5 C 7,4 C 0,0 C 86 % 95 % 0 % 1017,8 hPa 0,0 l/m 0,6 km/h (0 Bft) SW 225 0 min 0,0 UV-I 5,4 C 7,4 C 2,4 km/h (1 Bft)
02.06.2012 02:25 7,6 C 19,7 C 11,5 C 7,6 C 7,6 C 0,0 C 87 % 95 % 0 % 1017,9 hPa 0,0 l/m 1,0 km/h (0 Bft) W-SW 247 0 min 0,0 UV-I 5,6 C 7,6 C 1,9 km/h (1 Bft)
02.06.2012 02:30 7,6 C 19,7 C 11,5 C 7,6 C 7,6 C 0,0 C 87 % 94 % 0 % 1017,9 hPa 0,0 l/m 0,8 km/h (0 Bft) W-SW 247 0 min 0,0 UV-I 5,6 C 7,6 C 0,0 km/h (0 Bft)
02.06.2012 02:35 7,6 C 19,7 C 11,3 C 7,6 C 7,5 C 0,0 C 87 % 95 % 0 % 1017,9 hPa 0,0 l/m 0,2 km/h (0 Bft) S 180 0 min 0,0 UV-I 5,6 C 7,5 C 0,0 km/h (0 Bft)
02.06.2012 02:40 7,6 C 19,7 C 11,3 C 7,5 C 7,3 C 0,0 C 87 % 95 % 0 % 1017,9 hPa 0,0 l/m 0,0 km/h (0 Bft) W-SW 247 0 min 0,0 UV-I 5,6 C 7,3 C 0,0 km/h (0 Bft)
02.06.2012 02:45 7,7 C 19,7 C 11,3 C 7,5 C 7,2 C 0,0 C 87 % 95 % 0 % 1017,4 hPa 0,0 l/m 0,0 km/h (0 Bft) SW 225 0 min 0,0 UV-I 5,7 C 7,2 C 0,0 km/h (0 Bft)
02.06.2012 02:50 7,6 C 19,7 C 11,3 C 7,5 C 7,2 C 0,0 C 87 % 95 % 0 % 1017,4 hPa 0,0 l/m 0,6 km/h (0 Bft) SW 225 0 min 0,0 UV-I 5,6 C 7,2 C 2,6 km/h (1 Bft)
02.06.2012 02:55 7,6 C 19,7 C 11,3 C 7,5 C 7,3 C 0,0 C 87 % 95 % 0 % 1017,4 hPa 0,0 l/m 1,4 km/h (1 Bft) SW 225 0 min 0,0 UV-I 5,6 C 7,3 C 1,6 km/h (1 Bft)
02.06.2012 03:00 7,7 C 19,7 C 11,3 C 7,6 C 7,5 C 0,0 C 88 % 95 % 0 % 1017,4 hPa 0,0 l/m 1,6 km/h (1 Bft) SW 225 0 min 0,0 UV-I 5,8 C 7,5 C 1,6 km/h (1 Bft)
02.06.2012 03:11 7,7 C 19,7 C 11,3 C 8,1 C 8,1 C 0,4 C 88 % 95 % 0 % 1017,8 hPa 0,0 l/m 1,9 km/h (1 Bft) N 0 0 min 0,0 UV-I 5,8 C 8,1 C 3,4 km/h (1 Bft)
02.06.2012 03:20 7,9 C 19,7 C 11,3 C 8,2 C 8,2 C 0,3 C 88 % 95 % 0 % 1017,8 hPa 0,0 l/m 2,1 km/h (1 Bft) S-SW 202 0 min 0,0 UV-I 6,0 C 8,2 C 2,4 km/h (1 Bft)
02.06.2012 03:25 7,8 C 19,7 C 11,3 C 8,3 C 8,3 C 0,5 C 88 % 95 % 0 % 1017,7 hPa 0,0 l/m 1,9 km/h (1 Bft) W-SW 247 0 min 0,0 UV-I 5,9 C 8,3 C 2,9 km/h (1 Bft)
02.06.2012 03:30 7,9 C 19,7 C 11,3 C 8,3 C 8,3 C 0,4 C 88 % 95 % 0 % 1017,7 hPa 0,0 l/m 1,9 km/h (1 Bft) W-NW 292 0 min 0,0 UV-I 6,0 C 8,3 C 1,8 km/h (1 Bft)
02.06.2012 03:35 7,9 C 19,7 C 11,4 C 8,4 C 8,4 C 0,5 C 88 % 95 % 0 % 1017,7 hPa 0,0 l/m 2,4 km/h (1 Bft) W-SW 247 0 min 0,0 UV-I 6,0 C 8,4 C 2,9 km/h (1 Bft)
02.06.2012 03:40 8,0 C 19,7 C 11,4 C 8,5 C 8,5 C 0,5 C 88 % 95 % 0 % 1017,7 hPa 0,0 l/m 2,4 km/h (1 Bft) SW 225 0 min 0,0 UV-I 6,1 C 8,5 C 3,7 km/h (1 Bft)
02.06.2012 03:45 8,0 C 19,7 C 11,4 C 8,6 C 8,6 C 0,6 C 88 % 95 % 0 % 1017,9 hPa 0,0 l/m 2,3 km/h (1 Bft) W-SW 247 0 min 0,0 UV-I 6,1 C 8,6 C 3,2 km/h (1 Bft)
02.06.2012 03:50 8,1 C 19,7 C 11,4 C 8,7 C 8,7 C 0,6 C 88 % 95 % 0 % 1017,9 hPa 0,0 l/m 2,3 km/h (1 Bft) W-SW 247 0 min 0,0 UV-I 6,2 C 8,7 C 2,3 km/h (1 Bft)
02.06.2012 03:55 8,3 C 19,7 C 11,4 C 8,7 C 8,7 C 0,4 C 88 % 95 % 0 % 1017,9 hPa 0,0 l/m 1,6 km/h (1 Bft) SW 225 0 min 0,0 UV-I 6,4 C 8,7 C 0,0 km/h (0 Bft)
02.06.2012 04:00 8,2 C 19,7 C 11,4 C 8,8 C 8,8 C 0,6 C 87 % 95 % 0 % 1017,9 hPa 0,0 l/m 1,3 km/h (1 Bft) W 270 0 min 0,0 UV-I 6,2 C 8,8 C 1,8 km/h (1 Bft)
02.06.2012 04:08 8,4 C 19,7 C 11,3 C 9,0 C 9,0 C 0,6 C 87 % 95 % 0 % 1017,9 hPa 0,0 l/m 1,9 km/h (1 Bft) N 0 0 min 0,0 UV-I 6,4 C 9,0 C 1,8 km/h (1 Bft)
02.06.2012 04:23 8,5 C 19,7 C 11,5 C 8,7 C 8,7 C 0,2 C 87 % 95 % 0 % 1017,8 hPa 0,0 l/m 1,0 km/h (0 Bft) W-SW 247 0 min 0,0 UV-I 6,5 C 8,7 C 0,0 km/h (0 Bft)
02.06.2012 04:24 8,5 C 19,7 C 11,5 C 8,7 C 8,7 C 0,2 C 87 % 95 % 0 % 1017,8 hPa 0,0 l/m 1,0 km/h (0 Bft) W-SW 247 0 min 0,0 UV-I 6,5 C 8,7 C 0,0 km/h (0 Bft)
02.06.2012 04:25 8,5 C 19,7 C 11,4 C 8,7 C 8,7 C 0,2 C 86 % 95 % 0 % 1017,8 hPa 0,0 l/m 0,8 km/h (0 Bft) SW 225 0 min 0,0 UV-I 6,3 C 8,7 C 1,8 km/h (1 Bft)
02.06.2012 04:26 8,5 C 19,7 C 11,4 C 8,7 C 8,7 C 0,2 C 86 % 95 % 0 % 1017,8 hPa 0,0 l/m 0,8 km/h (0 Bft) SW 225 0 min 0,0 UV-I 6,3 C 8,7 C 1,8 km/h (1 Bft)
02.06.2012 04:27 8,5 C 19,7 C 11,4 C 8,7 C 8,7 C 0,2 C 86 % 95 % 0 % 1017,8 hPa 0,0 l/m 0,8 km/h (0 Bft) SW 225 0 min 0,0 UV-I 6,3 C 8,7 C 1,8 km/h (1 Bft)
02.06.2012 04:28 8,4 C 20,0 C 11,5 C 8,5 C 8,5 C 0,1 C 86 % 95 % 0 % 1017,8 hPa 0,0 l/m 0,2 km/h (0 Bft) W-SW 247 0 min 0,0 UV-I 6,2 C 8,5 C 0,0 km/h (0 Bft)
02.06.2012 04:33 8,4 C 20,0 C 11,5 C 8,5 C 8,5 C 0,1 C 86 % 95 % 0 % 1017,8 hPa 0,0 l/m 0,2 km/h (0 Bft) W-SW 247 0 min 0,0 UV-I 6,2 C 8,5 C 0,0 km/h (0 Bft)
02.06.2012 04:40 8,4 C 20,0 C 11,4 C 8,4 C 8,4 C 0,0 C 86 % 95 % 0 % 1018,1 hPa 0,0 l/m 0,2 km/h (0 Bft) SW 225 0 min 0,0 UV-I 6,2 C 8,4 C 0,0 km/h (0 Bft)
02.06.2012 04:45 8,4 C 20,0 C 11,3 C 8,4 C 8,4 C 0,0 C 86 % 95 % 0 % 1018,1 hPa 0,0 l/m 0,8 km/h (0 Bft) W-SW 247 0 min 0,0 UV-I 6,2 C 8,4 C 2,6 km/h (1 Bft)
02.06.2012 04:50 8,4 C 20,0 C 11,3 C 8,4 C 8,4 C 0,0 C 86 % 95 % 0 % 1018,1 hPa 0,0 l/m 1,1 km/h (1 Bft) W-SW 247 0 min 0,0 UV-I 6,2 C 8,4 C 1,6 km/h (1 Bft)
02.06.2012 04:55 8,4 C 20,0 C 11,3 C 8,4 C 8,4 C 0,0 C 85 % 95 % 0 % 1018,1 hPa 0,0 l/m 1,1 km/h (1 Bft) W-SW 247 0 min 0,0 UV-I 6,0 C 8,4 C 3,7 km/h (1 Bft)
02.06.2012 05:00 8,4 C 20,0 C 11,3 C 8,4 C 8,4 C 0,0 C 85 % 95 % 0 % 1018,1 hPa 0,0 l/m 1,1 km/h (1 Bft) W-SW 247 0 min 0,0 UV-I 6,0 C 8,4 C 3,7 km/h (1 Bft)
02.06.2012 05:13 8,5 C 20,0 C 11,3 C 8,4 C 8,3 C 0,0 C 84 % 95 % 0 % 1017,8 hPa 0,0 l/m 0,2 km/h (0 Bft) N 0 0 min 0,0 UV-I 6,0 C 8,3 C 0,0 km/h (0 Bft)
02.06.2012 05:20 8,5 C 20,0 C 11,3 C 8,4 C 8,3 C 0,0 C 84 % 95 % 0 % 1017,8 hPa 0,0 l/m 1,0 km/h (0 Bft) O-NO 67 0 min 0,0 UV-I 6,0 C 8,3 C 2,1 km/h (1 Bft)
02.06.2012 05:25 8,5 C 20,0 C 11,3 C 8,4 C 8,3 C 0,0 C 84 % 95 % 0 % 1017,9 hPa 0,0 l/m 1,4 km/h (1 Bft) S-SW 202 0 min 0,0 UV-I 6,0 C 8,3 C 2,6 km/h (1 Bft)
02.06.2012 05:30 8,5 C 20,0 C 11,2 C 8,4 C 8,3 C 0,0 C 83 % 95 % 0 % 1017,9 hPa 0,0 l/m 1,3 km/h (1 Bft) SW 225 0 min 0,0 UV-I 5,8 C 8,3 C 3,7 km/h (1 Bft)
02.06.2012 05:35 8,5 C 20,0 C 11,2 C 8,5 C 8,4 C 0,0 C 83 % 95 % 0 % 1017,9 hPa 0,0 l/m 2,4 km/h (1 Bft) SW 225 0 min 0,0 UV-I 5,8 C 8,4 C 8,9 km/h (2 Bft)
02.06.2012 05:40 8,5 C 20,0 C 11,2 C 8,5 C 8,4 C 0,0 C 82 % 95 % 0 % 1017,9 hPa 0,0 l/m 2,7 km/h (1 Bft) SW 225 0 min 0,0 UV-I 5,6 C 8,4 C 2,7 km/h (1 Bft)
02.06.2012 05:45 8,5 C 20,0 C 11,2 C 8,5 C 8,4 C 0,0 C 82 % 95 % 0 % 1018,3 hPa 0,0 l/m 1,9 km/h (1 Bft) SW 225 0 min 0,0 UV-I 5,6 C 8,4 C 1,8 km/h (1 Bft)
02.06.2012 05:50 8,5 C 20,0 C 11,1 C 8,5 C 8,4 C 0,0 C 82 % 95 % 0 % 1018,3 hPa 0,0 l/m 1,4 km/h (1 Bft) W-SW 247 0 min 0,0 UV-I 5,6 C 8,4 C 2,4 km/h (1 Bft)
02.06.2012 05:55 8,4 C 20,0 C 11,2 C 8,4 C 8,4 C 0,0 C 82 % 95 % 0 % 1018,3 hPa 0,0 l/m 1,6 km/h (1 Bft) S 180 0 min 0,0 UV-I 5,5 C 8,4 C 3,1 km/h (1 Bft)
02.06.2012 06:00 8,4 C 20,0 C 11,2 C 8,5 C 8,5 C 0,1 C 82 % 95 % 3 % 1018,3 hPa 0,0 l/m 1,6 km/h (1 Bft) W-SW 247 0 min 0,0 UV-I 5,5 C 8,5 C 2,9 km/h (1 Bft)
02.06.2012 06:13 8,4 C 20,0 C 11,1 C 8,6 C 8,6 C 0,2 C 81 % 95 % 5 % 1018,3 hPa 0,0 l/m 1,6 km/h (1 Bft) SW 225 0 min 0,0 UV-I 5,3 C 8,6 C 2,9 km/h (1 Bft)
02.06.2012 06:14 8,4 C 20,0 C 11,1 C 8,6 C 8,6 C 0,2 C 81 % 95 % 5 % 1018,3 hPa 0,0 l/m 1,6 km/h (1 Bft) SW 225 0 min 0,0 UV-I 5,3 C 8,6 C 2,9 km/h (1 Bft)
02.06.2012 06:17 8,4 C 20,0 C 11,1 C 8,6 C 8,6 C 0,2 C 81 % 95 % 5 % 1018,3 hPa 0,0 l/m 2,4 km/h (1 Bft) W-SW 247 0 min 0,0 UV-I 5,3 C 8,6 C 5,3 km/h (1 Bft)
02.06.2012 06:28 8,5 C 20,0 C 11,1 C 8,7 C 8,7 C 0,2 C 81 % 95 % 5 % 1018,5 hPa 0,0 l/m 2,3 km/h (1 Bft) SW 225 0 min 0,0 UV-I 5,4 C 8,7 C 2,9 km/h (1 Bft)
02.06.2012 06:29 8,5 C 20,0 C 11,1 C 8,7 C 8,7 C 0,2 C 81 % 95 % 5 % 1018,5 hPa 0,0 l/m 2,3 km/h (1 Bft) SW 225 0 min 0,0 UV-I 5,4 C 8,7 C 2,9 km/h (1 Bft)
02.06.2012 06:30 8,5 C 20,0 C 11,1 C 8,9 C 8,9 C 0,4 C 81 % 95 % 11 % 1018,5 hPa 0,0 l/m 1,4 km/h (1 Bft) W-SW 247 0 min 0,0 UV-I 5,4 C 8,9 C 1,6 km/h (1 Bft)
02.06.2012 06:31 8,5 C 20,0 C 11,1 C 8,9 C 8,9 C 0,4 C 81 % 95 % 11 % 1018,5 hPa 0,0 l/m 1,4 km/h (1 Bft) W-SW 247 0 min 0,0 UV-I 5,4 C 8,9 C 1,6 km/h (1 Bft)
02.06.2012 06:32 8,5 C 20,0 C 11,1 C 8,9 C 8,9 C 0,4 C 81 % 95 % 11 % 1018,5 hPa 0,0 l/m 1,4 km/h (1 Bft) W-SW 247 0 min 0,0 UV-I 5,4 C 8,9 C 1,6 km/h (1 Bft)
02.06.2012 06:35 8,5 C 20,0 C 11,1 C 8,9 C 8,9 C 0,4 C 81 % 95 % 11 % 1018,5 hPa 0,0 l/m 1,4 km/h (1 Bft) W-SW 247 0 min 0,0 UV-I 5,4 C 8,9 C 1,6 km/h (1 Bft)
02.06.2012 06:40 8,7 C 20,0 C 11,2 C 9,1 C 9,1 C 0,4 C 82 % 95 % 11 % 1018,4 hPa 0,0 l/m 1,4 km/h (1 Bft) SW 225 0 min 0,0 UV-I 5,8 C 9,1 C 2,4 km/h (1 Bft)
02.06.2012 06:45 8,7 C 20,0 C 11,2 C 9,1 C 9,1 C 0,4 C 81 % 95 % 11 % 1018,4 hPa 0,0 l/m 1,6 km/h (1 Bft) S-SW 202 0 min 0,0 UV-I 5,6 C 9,1 C 0,0 km/h (0 Bft)
02.06.2012 06:50 8,7 C 20,0 C 11,2 C 9,1 C 9,1 C 0,4 C 81 % 95 % 11 % 1018,4 hPa 0,0 l/m 1,6 km/h (1 Bft) S-SW 202 0 min 0,0 UV-I 5,6 C 9,1 C 0,0 km/h (0 Bft)
02.06.2012 06:55 8,8 C 20,0 C 11,3 C 9,4 C 9,4 C 0,6 C 82 % 95 % 16 % 1018,4 hPa 0,0 l/m 1,4 km/h (1 Bft) W-SW 247 0 min 0,0 UV-I 5,9 C 9,4 C 2,9 km/h (1 Bft)
02.06.2012 07:00 8,8 C 20,0 C 11,3 C 9,4 C 9,4 C 0,6 C 82 % 95 % 16 % 1018,4 hPa 0,0 l/m 1,4 km/h (1 Bft) W-SW 247 0 min 0,0 UV-I 5,9 C 9,4 C 2,9 km/h (1 Bft)
02.06.2012 07:12 8,8 C 20,0 C 11,3 C 9,7 C 9,7 C 0,9 C 81 % 95 % 24 % 1018,6 hPa 0,0 l/m 1,9 km/h (1 Bft) N 0 0 min 0,0 UV-I 5,7 C 9,7 C 2,4 km/h (1 Bft)
02.06.2012 07:20 8,9 C 20,0 C 11,2 C 9,7 C 9,7 C 0,8 C 81 % 95 % 21 % 1018,6 hPa 0,0 l/m 2,7 km/h (1 Bft) SW 225 0 min 0,0 UV-I 5,8 C 9,7 C 4,3 km/h (1 Bft)
02.06.2012 07:25 9,0 C 20,0 C 11,2 C 10,0 C 10,0 C 1,0 C 80 % 95 % 26 % 1018,8 hPa 0,0 l/m 2,9 km/h (1 Bft) W-NW 292 0 min 0,0 UV-I 5,7 C 10,0 C 3,5 km/h (1 Bft)
02.06.2012 07:30 9,0 C 20,0 C 11,3 C 10,3 C 10,3 C 1,3 C 79 % 95 % 34 % 1018,8 hPa 0,0 l/m 2,7 km/h (1 Bft) W-SW 247 0 min 0,0 UV-I 5,6 C 10,3 C 3,4 km/h (1 Bft)
02.06.2012 07:35 9,1 C 20,0 C 11,2 C 10,3 C 10,3 C 1,2 C 79 % 95 % 32 % 1018,8 hPa 0,0 l/m 2,9 km/h (1 Bft) SW 225 0 min 0,0 UV-I 5,7 C 10,3 C 2,4 km/h (1 Bft)
02.06.2012 07:40 9,2 C 20,0 C 11,2 C 10,5 C 10,5 C 1,3 C 79 % 95 % 34 % 1018,8 hPa 0,0 l/m 2,9 km/h (1 Bft) SW 225 0 min 0,0 UV-I 5,8 C 10,5 C 2,1 km/h (1 Bft)
02.06.2012 07:45 9,3 C 20,0 C 11,3 C 10,8 C 10,8 C 1,5 C 79 % 95 % 39 % 1019,4 hPa 0,0 l/m 2,3 km/h (1 Bft) W 270 0 min 0,0 UV-I 5,8 C 10,8 C 0,0 km/h (0 Bft)
02.06.2012 07:50 9,4 C 20,0 C 11,3 C 11,0 C 11,0 C 1,6 C 78 % 95 % 42 % 1019,4 hPa 0,0 l/m 2,1 km/h (1 Bft) SW 225 0 min 0,0 UV-I 5,8 C 11,0 C 6,4 km/h (2 Bft)
02.06.2012 07:55 9,5 C 20,0 C 11,3 C 11,3 C 11,3 C 1,8 C 78 % 95 % 47 % 1019,4 hPa 0,0 l/m 2,6 km/h (1 Bft) SW 225 0 min 0,0 UV-I 5,9 C 11,3 C 3,4 km/h (1 Bft)
02.06.2012 08:00 9,6 C 20,0 C 11,3 C 11,6 C 11,6 C 2,0 C 77 % 95 % 53 % 1019,4 hPa 0,0 l/m 2,9 km/h (1 Bft) S 180 0 min 0,0 UV-I 5,8 C 11,6 C 6,6 km/h (2 Bft)
02.06.2012 08:05 9,8 C 20,0 C 11,5 C 12,4 C 12,4 C 2,6 C 76 % 95 % 68 % 1018,8 hPa 0,0 l/m 3,9 km/h (1 Bft) S 180 0 min 0,0 UV-I 5,8 C 12,4 C 5,1 km/h (1 Bft)
02.06.2012 08:10 9,8 C 20,0 C 11,5 C 12,4 C 12,4 C 2,6 C 76 % 95 % 68 % 1018,8 hPa 0,0 l/m 3,9 km/h (1 Bft) S 180 0 min 0,0 UV-I 5,8 C 12,4 C 5,1 km/h (1 Bft)
02.06.2012 08:15 9,9 C 20,0 C 11,5 C 12,5 C 12,5 C 2,6 C 75 % 95 % 68 % 1018,8 hPa 0,0 l/m 3,7 km/h (1 Bft) SW 225 0 min 0,0 UV-I 5,7 C 12,5 C 1,9 km/h (1 Bft)
02.06.2012 08:20 10,0 C 20,0 C 11,5 C 13,3 C 13,3 C 3,3 C 75 % 95 % 87 % 1019,1 hPa 0,0 l/m 3,4 km/h (1 Bft) S 180 5 min 0,0 UV-I 5,8 C 13,3 C 2,4 km/h (1 Bft)
02.06.2012 08:25 10,1 C 20,0 C 11,5 C 13,4 C 13,4 C 3,3 C 74 % 95 % 87 % 1019,1 hPa 0,0 l/m 3,4 km/h (1 Bft) SW 225 5 min 0,0 UV-I 5,7 C 13,4 C 9,3 km/h (2 Bft)
02.06.2012 08:30 10,1 C 20,0 C 11,5 C 13,1 C 13,1 C 3,0 C 74 % 95 % 79 % 1019,1 hPa 0,0 l/m 3,5 km/h (1 Bft) SW 225 0 min 0,0 UV-I 5,7 C 13,1 C 3,5 km/h (1 Bft)
02.06.2012 08:35 10,1 C 20,0 C 11,5 C 13,1 C 13,1 C 3,0 C 74 % 95 % 79 % 1019,1 hPa 0,0 l/m 3,5 km/h (1 Bft) O-NO 67 0 min 0,0 UV-I 5,7 C 13,1 C 1,8 km/h (1 Bft)
02.06.2012 08:38 10,3 C 20,0 C 11,6 C 13,6 C 13,6 C 3,3 C 72 % 95 % 87 % 1018,9 hPa 0,0 l/m 3,9 km/h (1 Bft) S-SW 202 3 min 0,0 UV-I 5,5 C 13,6 C 10,5 km/h (2 Bft)
02.06.2012 08:43 10,3 C 20,0 C 11,4 C 13,9 C 13,9 C 3,6 C 72 % 94 % 95 % 1018,9 hPa 0,0 l/m 4,3 km/h (1 Bft) S-SW 202 5 min 0,0 UV-I 5,5 C 13,9 C 5,5 km/h (1 Bft)
02.06.2012 08:48 10,3 C 20,0 C 11,5 C 13,2 C 13,2 C 2,9 C 72 % 94 % 76 % 1018,9 hPa 0,0 l/m 4,5 km/h (1 Bft) SW 225 0 min 0,0 UV-I 5,5 C 13,2 C 3,4 km/h (1 Bft)
02.06.2012 08:53 10,3 C 20,0 C 11,5 C 13,3 C 13,3 C 3,0 C 72 % 94 % 79 % 1018,9 hPa 0,0 l/m 4,2 km/h (1 Bft) O-SO 112 0 min 0,0 UV-I 5,5 C 13,3 C 6,6 km/h (2 Bft)
02.06.2012 08:58 10,3 C 20,0 C 11,5 C 12,5 C 12,5 C 2,2 C 72 % 94 % 58 % 1018,8 hPa 0,0 l/m 3,7 km/h (1 Bft) SW 225 0 min 0,0 UV-I 5,5 C 12,5 C 6,9 km/h (2 Bft)
02.06.2012 09:03 10,4 C 20,0 C 11,6 C 12,9 C 12,9 C 2,5 C 72 % 94 % 66 % 1018,8 hPa 0,0 l/m 4,0 km/h (1 Bft) S-SW 202 0 min 0,0 UV-I 5,6 C 12,9 C 7,6 km/h (2 Bft)
02.06.2012 09:08 10,6 C 20,0 C 11,6 C 14,2 C 14,2 C 3,6 C 71 % 94 % 95 % 1018,8 hPa 0,0 l/m 4,0 km/h (1 Bft) SW 225 5 min 0,0 UV-I 5,6 C 14,2 C 4,8 km/h (1 Bft)
02.06.2012 09:13 10,5 C 20,0 C 11,6 C 13,8 C 13,8 C 3,3 C 70 % 94 % 87 % 1018,8 hPa 0,0 l/m 4,3 km/h (1 Bft) W 270 5 min 0,0 UV-I 5,3 C 13,8 C 4,3 km/h (1 Bft)
02.06.2012 09:18 10,5 C 20,0 C 11,6 C 14,1 C 14,1 C 3,6 C 72 % 94 % 95 % 1018,6 hPa 0,0 l/m 4,0 km/h (1 Bft) W-SW 247 5 min 0,0 UV-I 5,7 C 14,1 C 5,5 km/h (1 Bft)
02.06.2012 09:23 10,5 C 20,0 C 11,7 C 13,6 C 13,6 C 3,1 C 72 % 94 % 82 % 1018,6 hPa 0,0 l/m 3,4 km/h (1 Bft) W 270 0 min 0,0 UV-I 5,7 C 13,6 C 3,7 km/h (1 Bft)
02.06.2012 09:28 10,5 C 20,0 C 11,6 C 13,0 C 13,0 C 2,5 C 71 % 94 % 66 % 1018,6 hPa 0,0 l/m 3,1 km/h (1 Bft) W-SW 247 0 min 0,0 UV-I 5,5 C 13,0 C 8,0 km/h (2 Bft)
02.06.2012 09:33 10,4 C 20,0 C 11,6 C 12,7 C 12,7 C 2,3 C 72 % 94 % 61 % 1018,6 hPa 0,0 l/m 2,9 km/h (1 Bft) W-SW 247 0 min 0,0 UV-I 5,6 C 12,7 C 1,8 km/h (1 Bft)
02.06.2012 09:38 10,5 C 20,0 C 11,7 C 13,6 C 13,6 C 3,1 C 71 % 94 % 82 % 1018,9 hPa 0,0 l/m 3,9 km/h (1 Bft) S-SW 202 0 min 0,0 UV-I 5,5 C 13,6 C 5,5 km/h (1 Bft)
02.06.2012 09:43 10,5 C 20,0 C 11,7 C 13,6 C 13,6 C 3,1 C 71 % 93 % 82 % 1018,9 hPa 0,0 l/m 3,4 km/h (1 Bft) W-SW 247 0 min 0,0 UV-I 5,5 C 13,6 C 4,0 km/h (1 Bft)
02.06.2012 09:48 10,7 C 20,0 C 11,9 C 15,6 C 15,6 C 4,9 C 70 % 93 % 100 % 1018,9 hPa 0,0 l/m 4,2 km/h (1 Bft) SW 225 5 min 0,0 UV-I 5,5 C 15,6 C 7,7 km/h (2 Bft)
02.06.2012 09:53 10,8 C 20,0 C 11,9 C 15,6 C 15,6 C 4,8 C 70 % 93 % 100 % 1018,9 hPa 0,0 l/m 4,3 km/h (1 Bft) W-SW 247 5 min 0,0 UV-I 5,6 C 15,6 C 4,8 km/h (1 Bft)
02.06.2012 09:58 10,9 C 20,0 C 11,9 C 15,0 C 15,0 C 4,1 C 69 % 93 % 100 % 1018,0 hPa 0,0 l/m 4,0 km/h (1 Bft) SW 225 5 min 0,0 UV-I 5,4 C 15,0 C 4,5 km/h (1 Bft)
02.06.2012 10:03 10,9 C 19,0 C 12,0 C 15,8 C 15,8 C 4,9 C 69 % 93 % 100 % 1018,0 hPa 0,0 l/m 4,2 km/h (1 Bft) S-SW 202 5 min 0,0 UV-I 5,4 C 15,8 C 6,4 km/h (2 Bft)
02.06.2012 10:08 10,9 C 18,1 C 11,9 C 15,7 C 15,7 C 4,8 C 69 % 92 % 100 % 1018,0 hPa 0,0 l/m 4,5 km/h (1 Bft) W-SW 247 5 min 0,0 UV-I 5,4 C 15,7 C 10,0 km/h (2 Bft)
02.06.2012 10:13 11,1 C 18,1 C 12,1 C 16,6 C 16,6 C 5,5 C 68 % 92 % 100 % 1018,0 hPa 0,0 l/m 5,3 km/h (1 Bft) SW 225 5 min 0,0 UV-I 5,4 C 16,6 C 7,9 km/h (2 Bft)
02.06.2012 10:19 11,1 C 18,1 C 12,1 C 16,6 C 16,6 C 5,5 C 68 % 92 % 100 % 1018,0 hPa 0,0 l/m 5,3 km/h (1 Bft) SW 225 6 min 0,0 UV-I 5,4 C 16,6 C 7,9 km/h (2 Bft)
02.06.2012 10:25 11,2 C 18,1 C 12,0 C 15,8 C 15,8 C 4,6 C 65 % 91 % 100 % 1018,9 hPa 0,0 l/m 7,2 km/h (2 Bft) S 180 6 min 0,0 UV-I 4,9 C 15,8 C 15,6 km/h (3 Bft)
02.06.2012 10:30 11,1 C 18,0 C 11,8 C 14,9 C 14,4 C 3,8 C 65 % 91 % 100 % 1018,9 hPa 0,0 l/m 7,7 km/h (2 Bft) W-SW 247 5 min 0,0 UV-I 4,8 C 14,4 C 8,0 km/h (2 Bft)
02.06.2012 10:35 11,0 C 18,0 C 11,9 C 13,6 C 13,6 C 2,6 C 66 % 90 % 68 % 1018,9 hPa 0,0 l/m 6,9 km/h (2 Bft) W-SW 247 0 min 0,0 UV-I 4,9 C 13,6 C 21,4 km/h (4 Bft)
02.06.2012 10:40 11,1 C 18,0 C 11,9 C 13,4 C 13,4 C 2,3 C 66 % 90 % 61 % 1018,9 hPa 0,0 l/m 6,3 km/h (2 Bft) SW 225 0 min 0,0 UV-I 5,0 C 13,4 C 8,2 km/h (2 Bft)
02.06.2012 10:45 11,0 C 18,0 C 11,8 C 13,1 C 13,1 C 2,1 C 65 % 90 % 55 % 1018,7 hPa 0,0 l/m 6,8 km/h (2 Bft) S 180 0 min 0,0 UV-I 4,7 C 13,1 C 9,7 km/h (2 Bft)
02.06.2012 10:50 11,1 C 18,0 C 11,9 C 13,6 C 13,6 C 2,5 C 65 % 90 % 66 % 1018,7 hPa 0,0 l/m 6,4 km/h (2 Bft) W-SW 247 0 min 0,0 UV-I 4,8 C 13,6 C 6,8 km/h (2 Bft)
02.06.2012 10:55 11,3 C 18,0 C 12,0 C 15,0 C 15,0 C 3,7 C 66 % 90 % 97 % 1018,7 hPa 0,0 l/m 6,6 km/h (2 Bft) SW 225 5 min 0,0 UV-I 5,2 C 15,0 C 10,5 km/h (2 Bft)
02.06.2012 11:00 11,5 C 18,0 C 12,0 C 15,0 C 15,0 C 3,5 C 65 % 90 % 92 % 1018,7 hPa 0,0 l/m 6,1 km/h (2 Bft) W-SW 247 5 min 0,0 UV-I 5,2 C 15,0 C 11,7 km/h (2 Bft)
02.06.2012 11:05 11,5 C 18,0 C 11,9 C 14,6 C 14,6 C 3,1 C 62 % 88 % 82 % 1018,7 hPa 0,0 l/m 6,6 km/h (2 Bft) W-NW 292 0 min 0,0 UV-I 4,5 C 14,6 C 5,1 km/h (1 Bft)
02.06.2012 11:10 11,5 C 18,0 C 12,0 C 14,6 C 14,6 C 3,1 C 62 % 88 % 82 % 1018,7 hPa 0,0 l/m 6,8 km/h (2 Bft) SW 225 0 min 0,0 UV-I 4,5 C 14,6 C 6,0 km/h (2 Bft)
02.06.2012 11:15 11,7 C 18,1 C 12,1 C 16,4 C 16,4 C 4,7 C 63 % 88 % 100 % 1018,7 hPa 0,0 l/m 7,4 km/h (2 Bft) SW 225 5 min 0,0 UV-I 4,9 C 16,4 C 17,9 km/h (3 Bft)
02.06.2012 11:20 11,8 C 18,1 C 12,3 C 16,7 C 16,7 C 4,9 C 60 % 88 % 100 % 1018,7 hPa 0,0 l/m 7,6 km/h (2 Bft) W-SW 247 5 min 0,0 UV-I 4,3 C 16,7 C 8,0 km/h (2 Bft)
02.06.2012 11:25 12,0 C 18,0 C 12,4 C 17,6 C 17,6 C 5,6 C 60 % 88 % 100 % 1018,4 hPa 0,0 l/m 6,3 km/h (2 Bft) W-SW 247 5 min 0,0 UV-I 4,5 C 17,6 C 4,2 km/h (1 Bft)
02.06.2012 11:30 12,2 C 18,0 C 12,3 C 17,8 C 17,8 C 5,6 C 59 % 87 % 100 % 1018,4 hPa 0,0 l/m 6,0 km/h (2 Bft) S-SW 202 5 min 0,0 UV-I 4,4 C 17,8 C 8,2 km/h (2 Bft)
02.06.2012 11:35 12,3 C 18,0 C 12,3 C 16,2 C 16,2 C 3,9 C 57 % 87 % 100 % 1018,4 hPa 0,0 l/m 5,8 km/h (2 Bft) W-SW 247 5 min 0,0 UV-I 4,0 C 16,2 C 5,6 km/h (1 Bft)
02.06.2012 11:40 12,1 C 18,0 C 12,3 C 15,5 C 15,5 C 3,4 C 57 % 86 % 89 % 1018,4 hPa 0,0 l/m 6,3 km/h (2 Bft) SW 225 5 min 0,0 UV-I 3,8 C 15,5 C 15,6 km/h (3 Bft)
02.06.2012 11:45 12,0 C 18,0 C 12,3 C 14,7 C 14,7 C 2,7 C 58 % 86 % 71 % 1018,9 hPa 0,0 l/m 6,6 km/h (2 Bft) W-SW 247 0 min 0,0 UV-I 4,0 C 14,7 C 4,8 km/h (1 Bft)
02.06.2012 11:50 11,9 C 18,0 C 12,3 C 14,2 C 14,2 C 2,3 C 59 % 86 % 61 % 1018,9 hPa 0,0 l/m 6,6 km/h (2 Bft) SW 225 0 min 0,0 UV-I 4,1 C 14,2 C 6,4 km/h (2 Bft)
02.06.2012 11:55 12,0 C 18,0 C 12,3 C 15,2 C 15,2 C 3,2 C 59 % 87 % 84 % 1018,9 hPa 0,0 l/m 6,4 km/h (2 Bft) N-NO 22 0 min 0,0 UV-I 4,2 C 15,2 C 12,9 km/h (3 Bft)
02.06.2012 12:00 12,4 C 18,0 C 12,5 C 16,5 C 16,5 C 4,1 C 59 % 86 % 100 % 1018,9 hPa 0,0 l/m 6,6 km/h (2 Bft) W-SW 247 5 min 0,0 UV-I 4,6 C 16,5 C 6,6 km/h (2 Bft)
02.06.2012 12:11 13,1 C 18,0 C 12,7 C 17,7 C 17,7 C 4,6 C 55 % 85 % 100 % 1018,7 hPa 0,0 l/m 5,5 km/h (1 Bft) N 0 11 min 0,0 UV-I 4,3 C 17,7 C 6,4 km/h (2 Bft)
02.06.2012 12:20 12,9 C 17,9 C 12,5 C 16,7 C 16,7 C 3,8 C 54 % 85 % 100 % 1018,7 hPa 0,0 l/m 6,1 km/h (2 Bft) SW 225 9 min 0,0 UV-I 3,8 C 16,7 C 15,3 km/h (3 Bft)
02.06.2012 12:25 12,7 C 17,9 C 12,5 C 15,9 C 15,9 C 3,2 C 57 % 85 % 84 % 1018,8 hPa 0,0 l/m 6,4 km/h (2 Bft) W-SW 247 0 min 0,0 UV-I 4,4 C 15,9 C 9,3 km/h (2 Bft)
02.06.2012 12:30 12,9 C 17,9 C 12,7 C 16,3 C 16,3 C 3,4 C 58 % 85 % 89 % 1018,8 hPa 0,0 l/m 6,3 km/h (2 Bft) SW 225 5 min 0,0 UV-I 4,8 C 16,3 C 6,6 km/h (2 Bft)
02.06.2012 12:35 13,4 C 18,0 C 12,7 C 17,7 C 17,7 C 4,3 C 56 % 84 % 100 % 1018,8 hPa 0,0 l/m 6,9 km/h (2 Bft) W-SW 247 5 min 0,0 UV-I 4,8 C 17,7 C 12,7 km/h (3 Bft)
02.06.2012 12:40 13,5 C 18,0 C 12,8 C 18,2 C 18,2 C 4,7 C 56 % 85 % 100 % 1018,8 hPa 0,0 l/m 7,1 km/h (2 Bft) O-SO 112 5 min 0,0 UV-I 4,9 C 18,2 C 12,1 km/h (2 Bft)
02.06.2012 12:45 13,7 C 18,0 C 12,9 C 18,7 C 18,7 C 5,0 C 53 % 84 % 100 % 1018,8 hPa 0,0 l/m 6,6 km/h (2 Bft) SW 225 5 min 0,0 UV-I 4,3 C 18,7 C 10,0 km/h (2 Bft)
02.06.2012 12:50 14,0 C 18,0 C 12,9 C 19,3 C 19,3 C 5,3 C 56 % 85 % 100 % 1018,8 hPa 0,0 l/m 6,3 km/h (2 Bft) W 270 5 min 0,0 UV-I 5,4 C 19,3 C 5,8 km/h (2 Bft)
02.06.2012 12:55 14,5 C 18,0 C 13,1 C 19,5 C 19,5 C 5,0 C 52 % 84 % 100 % 1018,8 hPa 0,0 l/m 6,6 km/h (2 Bft) W-SW 247 5 min 0,0 UV-I 4,8 C 19,5 C 6,3 km/h (2 Bft)
02.06.2012 13:00 14,3 C 18,0 C 13,1 C 18,9 C 18,9 C 4,6 C 52 % 84 % 100 % 1018,8 hPa 0,0 l/m 6,4 km/h (2 Bft) SW 225 5 min 0,0 UV-I 4,6 C 18,9 C 8,7 km/h (2 Bft)
02.06.2012 13:11 14,0 C 18,0 C 13,1 C 18,2 C 18,2 C 4,2 C 54 % 84 % 100 % 1018,6 hPa 0,0 l/m 5,1 km/h (1 Bft) N 0 11 min 0,0 UV-I 4,8 C 18,2 C 8,4 km/h (2 Bft)
02.06.2012 13:20 13,9 C 18,0 C 12,9 C 17,9 C 17,9 C 4,0 C 53 % 83 % 100 % 1018,6 hPa 0,0 l/m 5,5 km/h (1 Bft) S 180 9 min 0,0 UV-I 4,5 C 17,9 C 12,4 km/h (3 Bft)
02.06.2012 13:25 13,6 C 18,0 C 12,9 C 16,9 C 16,9 C 3,3 C 54 % 83 % 87 % 1018,8 hPa 0,0 l/m 5,8 km/h (2 Bft) N-NW 337 5 min 0,0 UV-I 4,5 C 16,9 C 2,3 km/h (1 Bft)
02.06.2012 13:30 13,8 C 18,0 C 13,1 C 17,5 C 17,5 C 3,7 C 55 % 84 % 97 % 1018,8 hPa 0,0 l/m 5,6 km/h (1 Bft) W-NW 292 5 min 0,0 UV-I 4,9 C 17,5 C 7,7 km/h (2 Bft)
02.06.2012 13:35 14,3 C 18,0 C 13,1 C 17,8 C 17,8 C 3,5 C 54 % 85 % 92 % 1018,8 hPa 0,0 l/m 4,3 km/h (1 Bft) W 270 5 min 0,0 UV-I 5,1 C 17,8 C 3,4 km/h (1 Bft)
02.06.2012 13:40 14,0 C 18,0 C 13,0 C 17,3 C 17,3 C 3,3 C 53 % 85 % 87 % 1018,8 hPa 0,0 l/m 5,3 km/h (1 Bft) S-SW 202 5 min 0,0 UV-I 4,6 C 17,3 C 9,8 km/h (2 Bft)
02.06.2012 13:45 14,0 C 18,0 C 13,1 C 17,1 C 17,1 C 3,1 C 56 % 83 % 82 % 1018,6 hPa 0,0 l/m 5,8 km/h (2 Bft) S-SW 202 0 min 0,0 UV-I 5,4 C 17,1 C 4,0 km/h (1 Bft)
02.06.2012 13:50 14,0 C 18,0 C 12,9 C 16,9 C 16,9 C 2,9 C 52 % 82 % 76 % 1018,6 hPa 0,0 l/m 6,8 km/h (2 Bft) S-SW 202 0 min 0,0 UV-I 4,3 C 16,9 C 8,7 km/h (2 Bft)
02.06.2012 13:55 13,6 C 18,0 C 13,0 C 16,1 C 16,1 C 2,5 C 53 % 82 % 66 % 1018,6 hPa 0,0 l/m 6,4 km/h (2 Bft) S 180 0 min 0,0 UV-I 4,2 C 16,1 C 6,4 km/h (2 Bft)
02.06.2012 14:00 13,8 C 18,0 C 13,1 C 16,7 C 16,7 C 2,9 C 54 % 82 % 76 % 1018,6 hPa 0,0 l/m 6,6 km/h (2 Bft) S 180 0 min 0,0 UV-I 4,7 C 16,7 C 5,3 km/h (1 Bft)
02.06.2012 14:11 14,8 C 18,0 C 13,3 C 19,1 C 19,1 C 4,3 C 51 % 79 % 100 % 1018,9 hPa 0,0 l/m 6,3 km/h (2 Bft) N 0 11 min 0,0 UV-I 4,8 C 19,1 C 5,8 km/h (2 Bft)
02.06.2012 14:20 14,9 C 18,1 C 13,3 C 19,3 C 19,3 C 4,4 C 50 % 79 % 100 % 1018,9 hPa 0,0 l/m 6,9 km/h (2 Bft) W-NW 292 9 min 0,0 UV-I 4,6 C 19,3 C 9,7 km/h (2 Bft)
02.06.2012 14:25 15,2 C 18,1 C 13,5 C 20,0 C 20,0 C 4,8 C 51 % 80 % 100 % 1018,4 hPa 0,0 l/m 6,1 km/h (2 Bft) W-SW 247 5 min 0,0 UV-I 5,1 C 20,0 C 8,0 km/h (2 Bft)
02.06.2012 14:30 15,5 C 18,1 C 13,4 C 19,8 C 19,8 C 4,3 C 49 % 78 % 100 % 1018,4 hPa 0,0 l/m 6,4 km/h (2 Bft) S 180 5 min 0,0 UV-I 4,8 C 19,8 C 11,3 km/h (2 Bft)
02.06.2012 14:35 15,0 C 18,1 C 13,5 C 18,5 C 18,5 C 3,5 C 48 % 78 % 92 % 1018,4 hPa 0,0 l/m 6,4 km/h (2 Bft) S-SO 157 5 min 0,0 UV-I 4,1 C 18,5 C 8,0 km/h (2 Bft)
02.06.2012 14:40 14,8 C 18,1 C 13,5 C 18,3 C 18,3 C 3,5 C 50 % 79 % 92 % 1018,4 hPa 0,0 l/m 7,6 km/h (2 Bft) SW 225 5 min 0,0 UV-I 4,5 C 18,3 C 11,3 km/h (2 Bft)
02.06.2012 14:45 14,9 C 18,1 C 13,5 C 18,4 C 18,4 C 3,5 C 49 % 76 % 92 % 1018,2 hPa 0,0 l/m 8,9 km/h (2 Bft) W 270 5 min 0,0 UV-I 4,3 C 18,4 C 24,5 km/h (4 Bft)
02.06.2012 14:50 15,2 C 18,1 C 13,7 C 19,0 C 19,0 C 3,8 C 51 % 78 % 100 % 1018,2 hPa 0,0 l/m 7,2 km/h (2 Bft) N-NO 22 5 min 0,0 UV-I 5,1 C 19,0 C 8,7 km/h (2 Bft)
02.06.2012 14:55 15,6 C 18,1 C 13,6 C 19,6 C 19,6 C 4,0 C 49 % 77 % 100 % 1018,2 hPa 0,0 l/m 5,8 km/h (2 Bft) W-SW 247 5 min 0,0 UV-I 4,9 C 19,6 C 5,6 km/h (1 Bft)
02.06.2012 15:00 15,6 C 18,1 C 13,7 C 19,6 C 19,6 C 4,0 C 48 % 78 % 100 % 1018,2 hPa 0,0 l/m 6,9 km/h (2 Bft) W-SW 247 5 min 0,0 UV-I 4,6 C 19,6 C 6,1 km/h (2 Bft)
02.06.2012 15:11 15,0 C 18,1 C 13,7 C 18,0 C 18,0 C 3,0 C 51 % 80 % 79 % 1018,2 hPa 0,0 l/m 5,0 km/h (1 Bft) N 0 0 min 0,0 UV-I 4,9 C 18,0 C 4,5 km/h (1 Bft)
02.06.2012 15:20 15,5 C 18,1 C 13,7 C 18,7 C 18,7 C 3,2 C 53 % 81 % 84 % 1018,2 hPa 0,0 l/m 5,0 km/h (1 Bft) W-SW 247 0 min 0,0 UV-I 6,0 C 18,7 C 4,7 km/h (1 Bft)
02.06.2012 15:25 16,0 C 18,1 C 13,9 C 19,7 C 19,7 C 3,7 C 50 % 80 % 97 % 1018,1 hPa 0,0 l/m 3,9 km/h (1 Bft) W-NW 292 5 min 0,0 UV-I 5,6 C 19,7 C 6,4 km/h (2 Bft)
02.06.2012 15:30 16,1 C 18,1 C 13,9 C 20,3 C 20,3 C 4,2 C 49 % 78 % 100 % 1018,1 hPa 0,0 l/m 4,5 km/h (1 Bft) S 180 5 min 0,0 UV-I 5,4 C 20,3 C 4,0 km/h (1 Bft)
02.06.2012 15:35 16,0 C 18,1 C 13,9 C 19,8 C 19,8 C 3,8 C 49 % 79 % 100 % 1018,1 hPa 0,0 l/m 4,7 km/h (1 Bft) S 180 5 min 0,0 UV-I 5,3 C 19,8 C 0,0 km/h (0 Bft)
02.06.2012 15:40 15,7 C 18,1 C 13,9 C 19,3 C 19,3 C 3,6 C 50 % 79 % 95 % 1018,1 hPa 0,0 l/m 4,5 km/h (1 Bft) W-SW 247 5 min 0,0 UV-I 5,3 C 19,3 C 5,6 km/h (1 Bft)
02.06.2012 15:45 16,0 C 18,1 C 13,9 C 20,0 C 20,0 C 4,0 C 49 % 79 % 100 % 1018,2 hPa 0,0 l/m 4,5 km/h (1 Bft) W 270 5 min 0,0 UV-I 5,3 C 20,0 C 5,1 km/h (1 Bft)
02.06.2012 15:50 16,0 C 18,1 C 13,9 C 19,8 C 19,8 C 3,8 C 49 % 79 % 100 % 1018,2 hPa 0,0 l/m 5,3 km/h (1 Bft) SW 225 5 min 0,0 UV-I 5,3 C 19,8 C 7,1 km/h (2 Bft)
02.06.2012 15:55 16,1 C 18,1 C 14,0 C 19,7 C 19,7 C 3,6 C 50 % 79 % 95 % 1018,2 hPa 0,0 l/m 5,6 km/h (1 Bft) W 270 5 min 0,0 UV-I 5,7 C 19,7 C 4,5 km/h (1 Bft)
02.06.2012 16:00 16,3 C 18,1 C 14,0 C 19,9 C 19,9 C 3,6 C 47 % 77 % 95 % 1018,2 hPa 0,0 l/m 5,8 km/h (2 Bft) SW 225 5 min 0,0 UV-I 5,0 C 19,9 C 11,1 km/h (2 Bft)
02.06.2012 16:11 15,7 C 18,1 C 14,0 C 18,7 C 18,7 C 3,0 C 49 % 76 % 79 % 1018,0 hPa 0,0 l/m 6,4 km/h (2 Bft) N 0 0 min 0,0 UV-I 5,0 C 18,7 C 3,5 km/h (1 Bft)
02.06.2012 16:20 15,9 C 18,1 C 14,0 C 19,7 C 19,7 C 3,8 C 50 % 78 % 100 % 1018,0 hPa 0,0 l/m 4,2 km/h (1 Bft) SW 225 9 min 0,0 UV-I 5,5 C 19,7 C 2,9 km/h (1 Bft)
02.06.2012 16:25 16,1 C 18,1 C 14,1 C 20,2 C 20,2 C 4,1 C 49 % 78 % 100 % 1017,9 hPa 0,0 l/m 3,2 km/h (1 Bft) W-SW 247 5 min 0,0 UV-I 5,4 C 20,2 C 5,8 km/h (2 Bft)
02.06.2012 16:30 16,3 C 18,1 C 14,2 C 20,7 C 20,7 C 4,4 C 49 % 79 % 100 % 1017,9 hPa 0,0 l/m 3,1 km/h (1 Bft) N 360 5 min 0,0 UV-I 5,6 C 20,7 C 3,2 km/h (1 Bft)
02.06.2012 16:35 16,2 C 18,1 C 14,3 C 21,0 C 21,0 C 4,8 C 49 % 78 % 100 % 1017,9 hPa 0,0 l/m 4,2 km/h (1 Bft) W-SW 247 5 min 0,0 UV-I 5,5 C 21,0 C 6,6 km/h (2 Bft)
02.06.2012 16:40 16,3 C 18,1 C 14,3 C 21,1 C 21,1 C 4,8 C 49 % 79 % 100 % 1017,9 hPa 0,0 l/m 4,5 km/h (1 Bft) W 270 5 min 0,0 UV-I 5,6 C 21,1 C 4,5 km/h (1 Bft)
02.06.2012 16:45 16,3 C 18,5 C 14,3 C 20,9 C 20,9 C 4,6 C 48 % 76 % 100 % 1017,7 hPa 0,0 l/m 5,3 km/h (1 Bft) SW 225 5 min 0,0 UV-I 5,3 C 20,9 C 8,0 km/h (2 Bft)
02.06.2012 16:50 16,1 C 18,5 C 14,3 C 20,2 C 20,2 C 4,1 C 48 % 77 % 100 % 1017,7 hPa 0,0 l/m 6,0 km/h (2 Bft) S 180 5 min 0,0 UV-I 5,1 C 20,2 C 8,9 km/h (2 Bft)
02.06.2012 16:55 15,6 C 18,5 C 14,1 C 18,6 C 18,6 C 3,0 C 48 % 77 % 79 % 1017,7 hPa 0,0 l/m 5,0 km/h (1 Bft) SW 225 0 min 0,0 UV-I 4,6 C 18,6 C 5,0 km/h (1 Bft)
02.06.2012 17:00 15,3 C 18,5 C 14,1 C 17,5 C 17,5 C 2,2 C 48 % 77 % 58 % 1017,7 hPa 0,0 l/m 6,0 km/h (2 Bft) SW 225 0 min 0,0 UV-I 4,4 C 17,5 C 11,3 km/h (2 Bft)
02.06.2012 17:07 15,1 C 18,5 C 14,1 C 16,6 C 16,6 C 1,5 C 49 % 77 % 39 % 1017,6 hPa 0,0 l/m 6,1 km/h (2 Bft) N 0 0 min 0,0 UV-I 4,5 C 16,6 C 8,2 km/h (2 Bft)
02.06.2012 17:20 15,1 C 18,5 C 14,0 C 17,5 C 17,5 C 2,4 C 49 % 76 % 63 % 1017,6 hPa 0,0 l/m 6,4 km/h (2 Bft) S 180 0 min 0,0 UV-I 4,5 C 17,5 C 8,0 km/h (2 Bft)
02.06.2012 17:25 15,2 C 18,5 C 14,0 C 17,4 C 17,4 C 2,2 C 49 % 77 % 58 % 1017,4 hPa 0,0 l/m 6,4 km/h (2 Bft) W-SW 247 0 min 0,0 UV-I 4,6 C 17,4 C 11,4 km/h (2 Bft)
02.06.2012 17:30 15,1 C 18,5 C 14,0 C 17,3 C 17,3 C 2,2 C 48 % 77 % 58 % 1017,4 hPa 0,0 l/m 5,1 km/h (1 Bft) W 270 0 min 0,0 UV-I 4,2 C 17,3 C 3,4 km/h (1 Bft)
02.06.2012 17:35 15,4 C 18,5 C 14,3 C 18,7 C 18,7 C 3,3 C 48 % 77 % 87 % 1017,4 hPa 0,0 l/m 5,5 km/h (1 Bft) W-SW 247 5 min 0,0 UV-I 4,4 C 18,7 C 8,0 km/h (2 Bft)
02.06.2012 17:40 15,5 C 18,5 C 14,1 C 18,7 C 18,7 C 3,2 C 48 % 78 % 84 % 1017,4 hPa 0,0 l/m 4,8 km/h (1 Bft) S-SW 202 0 min 0,0 UV-I 4,5 C 18,7 C 3,2 km/h (1 Bft)
02.06.2012 17:45 15,1 C 18,5 C 14,0 C 17,1 C 17,1 C 2,0 C 48 % 77 % 53 % 1017,4 hPa 0,0 l/m 4,3 km/h (1 Bft) S-SW 202 0 min 0,0 UV-I 4,2 C 17,1 C 4,0 km/h (1 Bft)
02.06.2012 17:50 15,1 C 18,5 C 14,1 C 17,1 C 17,1 C 2,0 C 49 % 78 % 53 % 1017,4 hPa 0,0 l/m 3,9 km/h (1 Bft) S 180 0 min 0,0 UV-I 4,5 C 17,1 C 4,2 km/h (1 Bft)
02.06.2012 17:55 15,5 C 18,5 C 14,3 C 19,6 C 19,6 C 4,1 C 50 % 78 % 100 % 1017,4 hPa 0,0 l/m 3,4 km/h (1 Bft) NW 315 5 min 0,0 UV-I 5,1 C 19,6 C 9,5 km/h (2 Bft)
02.06.2012 18:00 15,6 C 18,5 C 14,3 C 20,1 C 20,1 C 4,5 C 47 % 77 % 100 % 1017,4 hPa 0,0 l/m 4,0 km/h (1 Bft) W 270 5 min 0,0 UV-I 4,3 C 20,1 C 4,2 km/h (1 Bft)
02.06.2012 18:11 15,5 C 18,5 C 14,4 C 19,7 C 19,7 C 4,2 C 48 % 76 % 100 % 1017,1 hPa 0,0 l/m 4,8 km/h (1 Bft) N 0 11 min 0,0 UV-I 4,5 C 19,7 C 4,3 km/h (1 Bft)
02.06.2012 18:20 15,6 C 18,5 C 14,5 C 20,0 C 20,0 C 4,4 C 49 % 77 % 100 % 1017,1 hPa 0,0 l/m 5,0 km/h (1 Bft) SW 225 9 min 0,0 UV-I 4,9 C 20,0 C 3,9 km/h (1 Bft)
02.06.2012 18:25 15,2 C 18,5 C 14,4 C 18,6 C 18,6 C 3,4 C 49 % 76 % 89 % 1017,3 hPa 0,0 l/m 4,5 km/h (1 Bft) S 180 5 min 0,0 UV-I 4,6 C 18,6 C 4,5 km/h (1 Bft)
02.06.2012 18:30 15,3 C 18,5 C 14,5 C 18,9 C 18,9 C 3,6 C 49 % 77 % 95 % 1017,3 hPa 0,0 l/m 3,9 km/h (1 Bft) SO 135 5 min 0,0 UV-I 4,7 C 18,9 C 3,5 km/h (1 Bft)
02.06.2012 18:35 15,5 C 18,5 C 14,5 C 19,5 C 19,5 C 4,0 C 49 % 77 % 100 % 1017,3 hPa 0,0 l/m 3,4 km/h (1 Bft) S-SW 202 5 min 0,0 UV-I 4,8 C 19,5 C 4,5 km/h (1 Bft)
02.06.2012 18:40 15,4 C 18,5 C 14,4 C 18,9 C 18,9 C 3,5 C 48 % 77 % 92 % 1017,3 hPa 0,0 l/m 3,4 km/h (1 Bft) W-SW 247 5 min 0,0 UV-I 4,4 C 18,9 C 4,8 km/h (1 Bft)
02.06.2012 18:45 14,9 C 18,5 C 14,3 C 17,0 C 17,0 C 2,1 C 49 % 78 % 55 % 1017,2 hPa 0,0 l/m 3,1 km/h (1 Bft) S 180 0 min 0,0 UV-I 4,3 C 17,0 C 2,6 km/h (1 Bft)
02.06.2012 18:50 14,6 C 18,5 C 14,1 C 16,1 C 16,1 C 1,5 C 49 % 78 % 39 % 1017,2 hPa 0,0 l/m 4,0 km/h (1 Bft) S 180 0 min 0,0 UV-I 4,0 C 16,1 C 7,2 km/h (2 Bft)
02.06.2012 18:55 14,8 C 18,5 C 14,3 C 16,6 C 16,6 C 1,8 C 50 % 77 % 47 % 1017,2 hPa 0,0 l/m 3,7 km/h (1 Bft) W-SW 247 0 min 0,0 UV-I 4,5 C 16,6 C 7,4 km/h (2 Bft)
02.06.2012 19:00 14,8 C 18,5 C 14,3 C 17,0 C 17,0 C 2,2 C 49 % 77 % 58 % 1017,2 hPa 0,0 l/m 4,7 km/h (1 Bft) W 270 0 min 0,0 UV-I 4,2 C 17,0 C 7,6 km/h (2 Bft)
02.06.2012 19:11 14,6 C 18,5 C 14,3 C 16,6 C 16,6 C 2,0 C 50 % 79 % 53 % 1017,2 hPa 0,0 l/m 3,4 km/h (1 Bft) N 0 0 min 0,0 UV-I 4,3 C 16,6 C 0,0 km/h (0 Bft)
02.06.2012 19:20 14,7 C 18,5 C 14,3 C 17,2 C 17,2 C 2,5 C 51 % 78 % 66 % 1017,2 hPa 0,0 l/m 3,4 km/h (1 Bft) W-SW 247 0 min 0,0 UV-I 4,7 C 17,2 C 5,0 km/h (1 Bft)
02.06.2012 19:25 14,8 C 18,5 C 14,3 C 17,6 C 17,6 C 2,8 C 50 % 79 % 74 % 1017,3 hPa 0,0 l/m 2,9 km/h (1 Bft) W-SW 247 5 min 0,0 UV-I 4,5 C 17,6 C 5,5 km/h (1 Bft)
02.06.2012 19:30 14,8 C 18,5 C 14,3 C 17,9 C 17,9 C 3,1 C 51 % 79 % 82 % 1017,3 hPa 0,0 l/m 3,2 km/h (1 Bft) N-NO 22 5 min 0,0 UV-I 4,8 C 17,9 C 2,1 km/h (1 Bft)
02.06.2012 19:35 14,9 C 18,5 C 14,8 C 18,3 C 18,3 C 3,4 C 51 % 80 % 89 % 1017,3 hPa 0,0 l/m 3,1 km/h (1 Bft) O-NO 67 5 min 0,0 UV-I 4,9 C 18,3 C 0,0 km/h (0 Bft)
02.06.2012 19:40 14,7 C 18,5 C 14,4 C 17,5 C 17,5 C 2,8 C 51 % 81 % 74 % 1017,3 hPa 0,0 l/m 2,4 km/h (1 Bft) NO 45 5 min 0,0 UV-I 4,7 C 17,5 C 2,4 km/h (1 Bft)
02.06.2012 19:45 14,4 C 18,5 C 14,3 C 16,0 C 16,0 C 1,6 C 52 % 82 % 42 % 1017,4 hPa 0,0 l/m 1,1 km/h (1 Bft) N 360 0 min 0,0 UV-I 4,7 C 16,0 C 0,0 km/h (0 Bft)
02.06.2012 19:50 14,3 C 18,5 C 14,1 C 15,3 C 15,3 C 1,0 C 53 % 83 % 26 % 1017,4 hPa 0,0 l/m 0,8 km/h (0 Bft) NW 315 0 min 0,0 UV-I 4,9 C 15,3 C 0,0 km/h (0 Bft)
02.06.2012 19:55 14,0 C 18,5 C 14,1 C 14,6 C 14,6 C 0,6 C 53 % 83 % 16 % 1017,4 hPa 0,0 l/m 0,5 km/h (0 Bft) NO 45 0 min 0,0 UV-I 4,6 C 14,6 C 0,0 km/h (0 Bft)
02.06.2012 20:00 13,9 C 18,5 C 14,1 C 14,4 C 14,4 C 0,5 C 53 % 84 % 13 % 1017,4 hPa 0,0 l/m 0,6 km/h (0 Bft) O 90 0 min 0,0 UV-I 4,5 C 14,4 C 0,0 km/h (0 Bft)
02.06.2012 20:08 13,7 C 18,5 C 13,9 C 14,1 C 14,1 C 0,4 C 54 % 85 % 11 % 1017,1 hPa 0,0 l/m 0,2 km/h (0 Bft) N 0 0 min 0,0 UV-I 4,6 C 14,1 C 0,0 km/h (0 Bft)
02.06.2012 20:25 13,2 C 18,5 C 13,7 C 13,1 C 13,0 C 0,0 C 56 % 86 % 0 % 1017,1 hPa 0,0 l/m 0,0 km/h (0 Bft) W-SW 247 0 min 0,0 UV-I 4,6 C 13,0 C 0,0 km/h (0 Bft)
02.06.2012 20:30 13,2 C 18,5 C 13,7 C 13,1 C 13,0 C 0,0 C 56 % 86 % 0 % 1017,1 hPa 0,0 l/m 0,0 km/h (0 Bft) W-SW 247 0 min 0,0 UV-I 4,6 C 13,0 C 0,0 km/h (0 Bft)
02.06.2012 20:35 13,1 C 18,5 C 13,7 C 13,0 C 12,9 C 0,0 C 56 % 86 % 0 % 1017,1 hPa 0,0 l/m 0,2 km/h (0 Bft) O-NO 67 0 min 0,0 UV-I 4,5 C 12,9 C 0,0 km/h (0 Bft)
02.06.2012 20:40 13,1 C 18,5 C 13,7 C 13,0 C 12,8 C 0,0 C 58 % 86 % 0 % 1017,1 hPa 0,0 l/m 0,2 km/h (0 Bft) NO 45 0 min 0,0 UV-I 5,0 C 12,8 C 0,0 km/h (0 Bft)
02.06.2012 20:45 13,0 C 18,5 C 13,6 C 12,8 C 12,5 C 0,0 C 59 % 86 % 0 % 1016,8 hPa 0,0 l/m 0,0 km/h (0 Bft) O-NO 67 0 min 0,0 UV-I 5,2 C 12,5 C 0,0 km/h (0 Bft)
02.06.2012 20:50 12,8 C 18,5 C 13,5 C 12,6 C 12,3 C 0,0 C 59 % 87 % 0 % 1016,8 hPa 0,0 l/m 0,0 km/h (0 Bft) S 180 0 min 0,0 UV-I 5,0 C 12,3 C 0,0 km/h (0 Bft)
02.06.2012 20:55 12,7 C 18,5 C 13,5 C 12,5 C 12,0 C 0,0 C 60 % 87 % 0 % 1016,8 hPa 0,0 l/m 0,2 km/h (0 Bft) SW 225 0 min 0,0 UV-I 5,1 C 12,0 C 0,0 km/h (0 Bft)
02.06.2012 21:00 12,6 C 18,5 C 13,5 C 12,3 C 11,8 C 0,0 C 60 % 87 % 0 % 1016,8 hPa 0,0 l/m 0,2 km/h (0 Bft) SW 225 0 min 0,0 UV-I 5,0 C 11,8 C 0,0 km/h (0 Bft)
02.06.2012 21:05 12,4 C 18,5 C 13,3 C 12,1 C 11,4 C 0,0 C 61 % 87 % 0 % 1016,9 hPa 0,0 l/m 0,0 km/h (0 Bft) O 90 0 min 0,0 UV-I 5,1 C 11,4 C 0,0 km/h (0 Bft)
02.06.2012 21:10 12,3 C 18,5 C 13,2 C 11,9 C 11,2 C 0,0 C 62 % 88 % 0 % 1016,9 hPa 0,0 l/m 0,0 km/h (0 Bft) O-NO 67 0 min 0,0 UV-I 5,2 C 11,2 C 0,0 km/h (0 Bft)
02.06.2012 21:15 11,9 C 18,5 C 13,0 C 11,6 C 11,0 C 0,0 C 65 % 88 % 0 % 1016,9 hPa 0,0 l/m 0,0 km/h (0 Bft) O-NO 67 0 min 0,0 UV-I 5,5 C 11,0 C 0,0 km/h (0 Bft)
02.06.2012 21:20 11,8 C 18,5 C 13,0 C 11,5 C 10,8 C 0,0 C 66 % 88 % 0 % 1016,9 hPa 0,0 l/m 0,0 km/h (0 Bft) O 90 0 min 0,0 UV-I 5,7 C 10,8 C 0,0 km/h (0 Bft)
02.06.2012 21:25 11,5 C 18,5 C 12,8 C 11,2 C 10,5 C 0,0 C 67 % 88 % 0 % 1017,1 hPa 0,0 l/m 0,0 km/h (0 Bft) O-NO 67 0 min 0,0 UV-I 5,6 C 10,5 C 0,0 km/h (0 Bft)
02.06.2012 21:30 11,5 C 18,5 C 12,9 C 11,1 C 10,3 C 0,0 C 68 % 88 % 0 % 1017,1 hPa 0,0 l/m 0,0 km/h (0 Bft) N-NW 337 0 min 0,0 UV-I 5,8 C 10,3 C 0,0 km/h (0 Bft)
02.06.2012 21:35 11,2 C 18,5 C 12,8 C 10,8 C 10,0 C 0,0 C 68 % 88 % 0 % 1017,1 hPa 0,0 l/m 0,0 km/h (0 Bft) N-NW 337 0 min 0,0 UV-I 5,5 C 10,0 C 0,0 km/h (0 Bft)
02.06.2012 21:40 11,1 C 18,5 C 12,7 C 10,6 C 9,7 C 0,0 C 70 % 88 % 0 % 1017,1 hPa 0,0 l/m 0,0 km/h (0 Bft) N-NW 337 0 min 0,0 UV-I 5,8 C 9,7 C 0,0 km/h (0 Bft)
02.06.2012 21:45 10,8 C 18,5 C 12,6 C 10,3 C 9,4 C 0,0 C 70 % 88 % 0 % 1017,2 hPa 0,0 l/m 0,0 km/h (0 Bft) N-NW 337 0 min 0,0 UV-I 5,6 C 9,4 C 0,0 km/h (0 Bft)
02.06.2012 21:50 10,7 C 18,5 C 12,6 C 10,1 C 9,0 C 0,0 C 70 % 88 % 0 % 1017,2 hPa 0,0 l/m 0,0 km/h (0 Bft) N-NW 337 0 min 0,0 UV-I 5,5 C 9,0 C 0,0 km/h (0 Bft)
02.06.2012 21:55 10,4 C 18,5 C 12,5 C 9,8 C 8,7 C 0,0 C 71 % 89 % 0 % 1017,2 hPa 0,0 l/m 0,0 km/h (0 Bft) N-NW 337 0 min 0,0 UV-I 5,4 C 8,7 C 0,0 km/h (0 Bft)
02.06.2012 22:00 10,3 C 18,5 C 12,4 C 9,7 C 8,6 C 0,0 C 72 % 89 % 0 % 1017,2 hPa 0,0 l/m 0,0 km/h (0 Bft) N-NW 337 0 min 0,0 UV-I 5,5 C 8,6 C 0,0 km/h (0 Bft)
02.06.2012 22:11 9,7 C 18,5 C 12,2 C 9,2 C 8,1 C 0,0 C 74 % 89 % 0 % 1017,6 hPa 0,0 l/m 0,0 km/h (0 Bft) N 0 0 min 0,0 UV-I 5,3 C 8,1 C 0,0 km/h (0 Bft)
02.06.2012 22:20 9,7 C 18,5 C 12,3 C 9,1 C 7,9 C 0,0 C 74 % 89 % 0 % 1017,6 hPa 0,0 l/m 0,0 km/h (0 Bft) O-NO 67 0 min 0,0 UV-I 5,3 C 7,9 C 0,0 km/h (0 Bft)
02.06.2012 22:25 9,5 C 18,5 C 12,1 C 8,9 C 7,8 C 0,0 C 76 % 89 % 0 % 1016,9 hPa 0,0 l/m 0,0 km/h (0 Bft) NW 315 0 min 0,0 UV-I 5,5 C 7,8 C 0,0 km/h (0 Bft)
02.06.2012 22:30 9,5 C 18,5 C 12,0 C 8,9 C 7,7 C 0,0 C 76 % 89 % 0 % 1016,9 hPa 0,0 l/m 0,0 km/h (0 Bft) NW 315 0 min 0,0 UV-I 5,5 C 7,7 C 0,0 km/h (0 Bft)
02.06.2012 22:35 9,3 C 18,5 C 11,9 C 8,8 C 7,8 C 0,0 C 77 % 90 % 0 % 1016,9 hPa 0,0 l/m 0,0 km/h (0 Bft) NW 315 0 min 0,0 UV-I 5,5 C 7,8 C 0,0 km/h (0 Bft)
02.06.2012 22:40 9,2 C 18,5 C 11,9 C 8,7 C 7,8 C 0,0 C 77 % 90 % 0 % 1016,9 hPa 0,0 l/m 0,0 km/h (0 Bft) NW 315 0 min 0,0 UV-I 5,4 C 7,8 C 0,0 km/h (0 Bft)
02.06.2012 22:45 9,1 C 18,5 C 11,7 C 8,6 C 7,6 C 0,0 C 78 % 90 % 0 % 1017,0 hPa 0,0 l/m 0,0 km/h (0 Bft) NW 315 0 min 0,0 UV-I 5,5 C 7,6 C 0,0 km/h (0 Bft)
02.06.2012 22:50 9,0 C 18,5 C 11,7 C 8,5 C 7,5 C 0,0 C 78 % 90 % 0 % 1017,0 hPa 0,0 l/m 0,0 km/h (0 Bft) W-SW 247 0 min 0,0 UV-I 5,4 C 7,5 C 0,0 km/h (0 Bft)
02.06.2012 22:55 8,9 C 18,5 C 11,7 C 8,4 C 7,3 C 0,0 C 78 % 90 % 0 % 1017,0 hPa 0,0 l/m 0,0 km/h (0 Bft) W-SW 247 0 min 0,0 UV-I 5,3 C 7,3 C 0,0 km/h (0 Bft)
02.06.2012 23:00 8,7 C 18,5 C 11,7 C 8,3 C 7,4 C 0,0 C 79 % 90 % 0 % 1017,0 hPa 0,0 l/m 0,0 km/h (0 Bft) S-SW 202 0 min 0,0 UV-I 5,3 C 7,4 C 0,0 km/h (0 Bft)
02.06.2012 23:11 8,5 C 18,5 C 11,6 C 8,1 C 7,4 C 0,0 C 80 % 90 % 0 % 1016,8 hPa 0,0 l/m 0,0 km/h (0 Bft) N 0 0 min 0,0 UV-I 5,3 C 7,4 C 0,0 km/h (0 Bft)
02.06.2012 23:20 8,5 C 18,5 C 11,7 C 8,1 C 7,4 C 0,0 C 80 % 90 % 0 % 1016,8 hPa 0,0 l/m 0,0 km/h (0 Bft) N-NW 337 0 min 0,0 UV-I 5,3 C 7,4 C 0,0 km/h (0 Bft)
02.06.2012 23:25 8,3 C 18,5 C 11,7 C 8,0 C 7,3 C 0,0 C 80 % 91 % 0 % 1016,7 hPa 0,0 l/m 0,2 km/h (0 Bft) W-SW 247 0 min 0,0 UV-I 5,1 C 7,3 C 0,0 km/h (0 Bft)
02.06.2012 23:30 8,2 C 18,5 C 11,6 C 7,9 C 7,3 C 0,0 C 80 % 91 % 0 % 1016,7 hPa 0,0 l/m 0,2 km/h (0 Bft) SW 225 0 min 0,0 UV-I 5,0 C 7,3 C 0,0 km/h (0 Bft)
02.06.2012 23:35 8,3 C 18,5 C 11,6 C 8,0 C 7,4 C 0,0 C 80 % 91 % 0 % 1016,7 hPa 0,0 l/m 0,0 km/h (0 Bft) O-NO 67 0 min 0,0 UV-I 5,1 C 7,4 C 0,0 km/h (0 Bft)
02.06.2012 23:40 8,3 C 18,5 C 11,5 C 8,0 C 7,5 C 0,0 C 81 % 91 % 0 % 1016,7 hPa 0,0 l/m 0,0 km/h (0 Bft) O-NO 67 0 min 0,0 UV-I 5,2 C 7,5 C 0,0 km/h (0 Bft)
02.06.2012 23:45 8,3 C 18,5 C 11,4 C 8,1 C 7,6 C 0,0 C 81 % 91 % 0 % 1016,6 hPa 0,0 l/m 0,0 km/h (0 Bft) S 180 0 min 0,0 UV-I 5,2 C 7,6 C 0,0 km/h (0 Bft)
02.06.2012 23:50 8,2 C 18,5 C 11,5 C 8,0 C 7,6 C 0,0 C 81 % 91 % 0 % 1016,6 hPa 0,0 l/m 0,0 km/h (0 Bft) S-SW 202 0 min 0,0 UV-I 5,1 C 7,6 C 0,0 km/h (0 Bft)
02.06.2012 23:55 8,1 C 18,5 C 11,4 C 7,9 C 7,6 C 0,0 C 81 % 91 % 0 % 1016,6 hPa 0,0 l/m 0,0 km/h (0 Bft) SW 225 0 min 0,0 UV-I 5,0 C 7,6 C 0,0 km/h (0 Bft)
_ Min-Zeit 02:11 12:20 05:50 02:00 02:00 00:00 16:00 14:45 00:00 23:45 - 01:45 - - - 00:00 12:20 02:00 00:40
Minimum _ 7,6 C 17,9 C 11,1 C 7,5 C 6,9 C 0,0 C 47 % 76 % 0 % 1016,6 hPa - 0,0 km/h (0 Bft) - - - 0,0 UV-I 3,8 C 6,9 C 0,0 km/h (0 Bft)
_ Max-Zeit 16:00 04:28 19:35 16:40 16:40 11:25 03:00 02:11 09:48 07:45 00:00 14:45 - - 12:11 00:00 00:00 16:40 14:45
Maximum _ 16,3 C 20,0 C 14,8 C 21,1 C 21,1 C 5,6 C 88 % 95 % 100 % 1019,4 hPa 0,0 l/m 8,9 km/h
W (2 Bft)
- - 11 min 0,0 UV-I 6,6 C 21,1 C 24,5 km/h
W (4 Bft)
Durchschnitt _ 11,4 C 18,9 C 12,4 C 13,1 C 12,9 C 1,8 C 68 % 88 % 44 % 1018,0 hPa #0,0 l/m 3,1 km/h (1 Bft) W-SW - #7:14 h 0,0 UV-I 5,3 C 12,9 C 4,1 km/h (1 Bft)
2012 www.wetterstation-wechselburg.de